Location: Saint-Gilles les Bains
(21.0539°S, 55.2287°E)
Time: 05:25:47
(UTC+04:00)

Hubble Space Telescope - Pass Details

Date: 15 April 2024
Orbit: 512 x 515 km, 28.5° (Epoch: 20 May)

Event Time Altitude Azimuth Distance (km) Brightness Sun altitude
Exits shadow 04:25:40 27° 93° (E) 1,015 2.7 -29.9°
Drops below altitude 10° 04:27:41 10° 103° (ESE) 1,748 4.3 -29.4°
Sets 04:29:57 0° 107° (ESE) 2,639 5.4 -28.9°
